Regional Weather Roundup
Issued by NWS

Home | Current Version | Previous Version | Graphics & Text | Print | Product List | Glossary Off
Versions: 1 2 3 4 5 6 7 8 9 10 11 12 13 14 15 16 17 18 19 20 21 22 23 24 25 26 27 28 29 30 31 32 33 34 35 36 37 38 39 40 41 42 43 44 45 46 47 48 49 50

000
ASUS43 KFSD 191810
RWRSD

WEATHER ROUNDUP FOR SOUTH DAKOTA
NATIONAL WEATHER SERVICE SIOUX FALLS SD
100 PM CDT FRI SEP 19 2014

NOTE: "FAIR" INDICATES FEW OR NO CLOUDS BELOW 12,000 FEET WITH NO
SIGNIFICANT WEATHER AND/OR OBSTRUCTIONS TO VISIBILITY.


SDZ001>005-009-010-012>017-191900-
NORTHWEST AND NORTH CENTRAL SOUTH DAKOTA

CITY           SKY/WX    TMP DP  RH WIND       PRES   REMARKS
BUFFALO          N/A     78  48  34 NW17G25   29.75S
FAITH            N/A     78  58  49 W14       29.76F
MOBRIDGE       MOSUNNY   78  61  55 NW10      29.66R
$$

SDZ012>016-024>037-041>051-057-063-072>074-191900-
SOUTHWEST AND SOUTH CENTRAL SOUTH DAKOTA

CITY           SKY/WX    TMP DP  RH WIND       PRES   REMARKS
RAPID CTY ARPT PTSUNNY   81  50  33 N12G21    29.83F
PIERRE         CLOUDY    83  55  38 W18G24    29.71S
CUSTER         MOSUNNY   75  46  35 W12       29.97S
ELLSWORTH AFB  MOSUNNY   80  52  37 N15       29.83S
PHILIP         PTSUNNY   82  54  37 NW15G23   29.77S
PINE RIDGE     MOSUNNY   79  57  46 W8        29.86F
WINNER         FAIR      86  56  35 NW13      29.74S
$$

SDZ004>011-016>023-039-040-191900-
NORTHEAST SOUTH DAKOTA

CITY           SKY/WX    TMP DP  RH WIND       PRES   REMARKS
ABERDEEN       CLOUDY    71  64  78 W10       29.66S
WATERTOWN      CLOUDY    72  64  76 SW14      29.68R
SISSETON         N/A     70  66  87 W9        29.64S
$$

SDZ017-020-022-023-036>040-048>070-191900-
SOUTHEAST SOUTH DAKOTA

CITY           SKY/WX    TMP DP  RH WIND       PRES   REMARKS
SIOUX FALLS    MOSUNNY   81  64  56 SW15G23   29.71R
HURON          PTSUNNY   79  64  60 W8        29.67S
CHAMBERLAIN    MOSUNNY   81  65  58 NW12      29.71S
MITCHELL       MOSUNNY   81  66  60 SW8       29.69S
YANKTON        SUNNY     82  64  54 S15G24    29.71F
$$

ABBREVIATIONS USED IN REMARKS
   TC - TEMPERATURE IN CELSIUS
  WCI - WIND CHILL INDEX
   HX - HEAT INDEX
  VSB - VISIBILITY



USA.gov is the U.S. government's official web portal to all federal, state and local government web resources and services.